CW1575 Weather Reports


Display with metric or nautical units.
time (UTC)temp
F
wind
direction
speed
MPH
gust
MPH
rain 1hr
in
rain 24hr
in
rain mn
in
humidity
%
barometer
mb
20150703153502 69 165 1.0 3.0 0.00 0.09 0.01 73 1023.3
20150703153003 69 313 1.0 3.0 0.00 0.09 0.01 74 1023.5
20150703152502 68 313 2.0 3.0 0.00 0.09 0.01 80 1023.6
20150703152002 67 296 1.0 3.0 0.00 0.09 0.01 79 1023.6
20150703151502 67 5 2.0 3.0 0.00 0.09 0.01 81 1023.6
20150703151002 66 5 1.0 3.0 0.00 0.09 0.01 82 1023.7
20150703150503 66 317 2.0 5.0 0.00 0.09 0.01 84 1023.6
20150703150002 65 1 2.0 5.0 0.00 0.09 0.01 85 1023.7
20150703145503 64 337 2.0 8.0 0.00 0.09 0.01 85 1023.9
20150703145003 64 259 2.0 5.0 0.00 0.09 0.01 88 1023.9
20150703144502 64 312 2.0 7.0 0.00 0.09 0.01 89 1024.1
20150703144003 63 339 3.0 5.0 0.00 0.09 0.01 90 1024.1
20150703143502 63 301 2.0 5.0 0.00 0.09 0.01 91 1024.3
20150703143003 62 301 1.0 5.0 0.00 0.09 0.01 91 1024.3
20150703142502 62 328 2.0 5.0 0.00 0.09 0.01 92 1024.2
20150703142002 62 32 3.0 7.0 0.00 0.09 0.01 93 1024.2
20150703141502 61 343 2.0 5.0 0.00 0.09 0.01 93 1024.2
20150703141002 61 357 3.0 9.0 0.00 0.09 0.01 94 1024.3
20150703140502 61 324 2.0 5.0 0.00 0.09 0.01 94 1024.3
20150703140003 60 329 2.0 8.0 0.00 0.09 0.01 94 1024.1
20150703135502 60 353 3.0 6.0 0.00 0.09 0.01 94 1024.0
20150703135002 60 316 3.0 7.0 0.00 0.09 0.01 95 1024.1
20150703134503 59 312 3.0 8.0 0.00 0.09 0.01 95 1024.2
20150703134002 59 310 4.0 8.0 0.00 0.09 0.01 95 1024.2
20150703133505 59 337 3.0 9.0 0.00 0.09 0.01 95 1024.3
20150703133003 59 326 3.0 7.0 0.00 0.09 0.01 95 1024.4
20150703132502 58 319 2.0 3.0 0.00 0.09 0.01 95 1024.4
20150703132003 58 315 3.0 5.0 0.00 0.09 0.01 95 1024.4
20150703131504 58 342 1.0 3.0 0.00 0.09 0.01 95 1024.2
20150703131011 58 355 2.0 7.0 0.00 0.09 0.01 95 1024.0
20150703130502 58 315 2.0 3.0 0.00 0.09 0.01 95 1023.9
20150703130003 57 309 2.0 3.0 0.00 0.09 0.01 95 1023.8
20150703125502 57 3 2.0 3.0 0.00 0.09 0.01 95 1023.7
20150703125002 57 306 1.0 3.0 0.00 0.09 0.01 95 1023.6
20150703124504 57 323 1.0 3.0 0.00 0.09 0.01 95 1023.5
20150703124002 57 302 1.0 3.0 0.00 0.09 0.01 95 1023.6
20150703123503 57 263 0.0 1.0 0.00 0.09 0.01 95 1023.6
20150703123003 57 263 0.0 1.0 0.00 0.10 0.01 95 1023.3
20150703122503 57 263 0.0 1.0 0.00 0.10 0.01 95 1023.3
20150703122002 57 263 1.0 2.0 0.00 0.10 0.01 95 1023.2
20150703121502 57 263 1.0 2.0 0.00 0.11 0.01 95 1022.9
20150703121004 57 257 1.0 2.0 0.00 0.13 0.01 95 1022.9
20150703120502 57 257 0.0 0.0 0.00 0.13 0.01 95 1022.9
20150703120002 57 257 0.0 2.0 0.00 0.13 0.01 95 1023.2
20150703115502 57 212 0.0 1.0 0.00 0.14 0.01 95 1023.2
20150703115002 58 212 1.0 2.0 0.00 0.14 0.01 95 1023.1
20150703114502 58 211 0.0 1.0 0.00 0.14 0.01 95 1023.0
20150703114003 58 211 0.0 0.0 0.00 0.14 0.01 95 1022.8
20150703113502 58 211 0.0 1.0 0.00 0.14 0.01 95 1022.8
20150703113002 58 211 0.0 1.0 0.00 0.14 0.01 95 1022.8
20150703112502 58 211 0.0 2.0 0.00 0.14 0.01 95 1022.5
20150703112002 58 211 1.0 2.0 0.00 0.14 0.01 95 1022.4
20150703111502 58 211 1.0 2.0 0.00 0.14 0.01 95 1022.3
20150703111002 58 211 0.0 1.0 0.00 0.14 0.01 95 1022.3
20150703110502 58 211 0.0 1.0 0.00 0.14 0.01 95 1022.2
20150703110002 58 211 0.0 1.0 0.00 0.14 0.01 95 1022.1
20150703105502 58 211 0.0 1.0 0.00 0.14 0.01 95 1022.2
20150703105004 58 211 0.0 1.0 0.00 0.14 0.01 95 1022.4
20150703104503 58 211 0.0 1.0 0.00 0.14 0.01 95 1022.2
20150703104003 58 211 0.0 2.0 0.00 0.14 0.01 95 1022.2
20150703103502 58 211 1.0 3.0 0.00 0.14 0.01 95 1022.0
20150703103003 58 211 0.0 1.0 0.00 0.14 0.01 94 1021.9
20150703102503 58 211 0.0 1.0 0.00 0.14 0.01 94 1021.9
20150703102003 58 211 1.0 2.0 0.00 0.14 0.01 94 1022.0
20150703101502 58 211 0.0 1.0 0.00 0.14 0.01 94 1021.7
20150703101002 58 211 0.0 0.0 0.00 0.14 0.01 94 1021.7
20150703100003 58 211 1.0 2.0 0.00 0.14 0.01 94 1021.6
20150703095502 58 211 1.0 2.0 0.00 0.14 0.01 94 1021.7
20150703095002 58 211 0.0 1.0 0.00 0.14 0.01 94 1021.7
20150703094511 58 211 0.0 1.0 0.00 0.14 0.01 94 1021.7
20150703094002 58 211 1.0 1.0 0.00 0.14 0.01 94 1021.7
20150703093502 58 211 0.0 1.0 0.00 0.14 0.01 94 1021.5
20150703093002 58 211 0.0 1.0 0.00 0.14 0.01 94 1021.5
20150703092502 58 211 0.0 1.0 0.00 0.14 0.01 94 1021.7
20150703092003 58 211 0.0 1.0 0.00 0.14 0.01 94 1021.7
20150703091502 58 211 0.0 0.0 0.00 0.14 0.01 94 1021.9
20150703091003 58 211 0.0 0.0 0.00 0.14 0.01 94 1021.9
20150703090503 58 211 0.0 1.0 0.00 0.14 0.01 94 1021.9
20150703090002 58 211 1.0 2.0 0.00 0.14 0.01 94 1021.9
20150703085503 58 211 0.0 0.0 0.00 0.14 0.01 94 1021.9
20150703085002 58 211 1.0 2.0 0.00 0.14 0.01 94 1022.0
20150703084502 59 211 1.0 2.0 0.00 0.14 0.01 94 1022.1
20150703084002 58 211 0.0 1.0 0.00 0.14 0.01 93 1022.3
20150703083504 59 211 1.0 2.0 0.00 0.14 0.01 93 1022.4
20150703083011 59 211 0.0 1.0 0.01 0.14 0.01 93 1022.5
20150703082504 59 211 0.0 1.0 0.01 0.14 0.01 93 1022.5
20150703082002 59 211 0.0 0.0 0.01 0.14 0.01 93 1022.5
20150703081502 59 211 0.0 1.0 0.01 0.14 0.01 93 1022.6
20150703081003 59 211 0.0 0.0 0.01 0.14 0.01 93 1022.7
20150703080502 59 211 0.0 0.0 0.01 0.14 0.01 93 1022.7
20150703080004 59 211 0.0 2.0 0.01 0.14 0.01 93 1022.7
20150703075503 59 211 0.0 1.0 0.01 0.14 0.01 93 1022.9
20150703075005 59 211 1.0 2.0 0.01 0.14 0.01 93 1023.0
20150703074502 59 211 0.0 1.0 0.01 0.14 0.01 93 1023.1
20150703074003 59 211 0.0 1.0 0.01 0.14 0.01 93 1023.3
20150703073502 59 211 1.0 2.0 0.01 0.14 0.01 93 1023.5
20150703073002 59 211 0.0 0.0 0.00 0.13 0.00 93 1023.5
20150703072503 59 211 0.0 0.0 0.00 0.13 0.00 93 1023.5
20150703072003 59 211 0.0 1.0 0.00 0.13 0.00 93 1023.6
20150703071502 59 211 1.0 1.0 0.00 0.13 0.00 93 1023.5
20150703071003 60 211 0.0 1.0 0.00 0.13 0.00 93 1023.5
20150703070502 60 211 0.0 1.0 0.00 0.13 0.00 93 1023.4
20150703070004 60 211 0.0 0.0 0.00 0.13 0.00 93 1023.5
20150703065503 60 211 0.0 0.0 0.00 0.13 0.00 93 1023.6
20150703065005 60 211 0.0 1.0 0.00 0.13 0.00 93 1023.6
20150703064502 60 211 0.0 1.0 0.00 0.13 0.00 93 1023.5
20150703064002 60 211 0.0 1.0 0.00 0.13 0.00 93 1023.5
20150703063502 60 211 0.0 1.0 0.00 0.13 0.00 93 1023.6
20150703063002 60 211 0.0 0.0 0.00 0.13 0.00 93 1023.6
20150703062503 60 211 0.0 1.0 0.00 0.13 0.00 93 1023.6
20150703062002 60 211 0.0 2.0 0.00 0.13 0.00 93 1023.6
20150703061502 60 211 1.0 3.0 0.00 0.13 0.00 93 1023.2
20150703061002 60 140 1.0 3.0 0.00 0.13 0.00 93 1023.2
20150703060502 60 170 1.0 3.0 0.00 0.13 0.00 92 1023.7
20150703060002 60 207 0.0 0.0 0.00 0.13 0.00 92 1024.2
20150703055502 60 207 0.0 1.0 0.00 0.13 0.13 92 1024.2
20150703055003 60 207 0.0 0.0 0.00 0.13 0.13 92 1024.3
20150703053506 61 207 0.0 1.0 0.00 0.13 0.13 92 1024.5
20150703053002 61 207 1.0 1.0 0.00 0.13 0.13 92 1024.5
20150703052503 61 207 0.0 1.0 0.00 0.13 0.13 92 1024.3
20150703052003 61 207 0.0 1.0 0.00 0.13 0.13 92 1024.2
20150703051502 61 207 0.0 1.0 0.00 0.13 0.13 92 1024.5
20150703051003 61 207 0.0 0.0 0.00 0.13 0.13 91 1024.5
20150703050505 61 207 0.0 1.0 0.00 0.13 0.13 91 1024.5
20150703050003 61 207 0.0 2.0 0.00 0.13 0.13 91 1024.6
20150703045503 61 207 0.0 1.0 0.00 0.13 0.13 91 1024.6
20150703045005 61 207 1.0 3.0 0.00 0.13 0.13 91 1024.5
20150703044502 61 209 1.0 2.0 0.00 0.13 0.13 91 1024.4
20150703044002 61 209 2.0 3.0 0.00 0.13 0.13 91 1024.5
20150703043503 61 211 2.0 3.0 0.00 0.13 0.13 91 1024.5
20150703043002 61 196 1.0 3.0 0.00 0.13 0.13 91 1024.5
20150703042502 61 176 1.0 3.0 0.00 0.13 0.13 91 1024.5
20150703042002 62 203 2.0 3.0 0.00 0.13 0.13 91 1024.5
20150703041502 62 207 2.0 3.0 0.00 0.13 0.13 91 1024.5
20150703041003 62 227 0.0 2.0 0.00 0.13 0.13 91 1024.6
20150703040502 62 227 1.0 2.0 0.00 0.13 0.13 90 1024.7
20150703040002 62 227 0.0 1.0 0.00 0.13 0.13 90 1024.6
20150703035504 62 227 0.0 3.0 0.00 0.13 0.13 90 1024.6
20150703035003 62 290 1.0 3.0 0.00 0.13 0.13 90 1024.6
20150703034502 62 304 0.0 1.0 0.00 0.13 0.13 90 1024.5
20150703034002 62 304 0.0 1.0 0.00 0.13 0.13 90 1024.5
20150703033502 62 304 0.0 1.0 0.01 0.13 0.13 90 1024.3
20150703033002 62 304 1.0 2.0 0.02 0.13 0.13 90 1024.2
20150703032502 62 304 2.0 3.0 0.03 0.13 0.13 90 1024.2
20150703032004 63 289 2.0 3.0 0.04 0.13 0.13 90 1023.3
20150703031502 63 256 1.0 2.0 0.05 0.13 0.13 89 1023.3
20150703031004 63 256 1.0 3.0 0.06 0.13 0.13 89 1023.1
20150703030502 63 204 3.0 7.0 0.06 0.13 0.13 88 1022.8
20150703030003 63 224 2.0 3.0 0.06 0.13 0.13 88 1022.6
20150703025502 63 25 4.0 9.0 0.08 0.13 0.13 87 1022.6
20150703025004 63 39 2.0 10.0 0.08 0.13 0.13 85 1023.4
20150703024503 64 25 4.0 9.0 0.08 0.13 0.13 84 1023.4
20150703024002 64 18 3.0 12.0 0.08 0.13 0.13 83 1023.8
20150703023502 65 31 5.0 10.0 0.07 0.12 0.12 81 1024.3
20150703023002 66 24 6.0 12.0 0.06 0.11 0.11 79 1024.5
20150703022502 67 352 5.0 10.0 0.05 0.10 0.10 78 1024.7
20150703022002 68 334 4.0 12.0 0.04 0.09 0.09 75 1024.5
20150703021501 69 337 4.0 12.0 0.03 0.08 0.08 72 1024.2
20150703021002 70 345 6.0 13.0 0.02 0.07 0.07 69 1024.2
20150703020502 73 334 6.0 14.0 0.02 0.07 0.07 64 1024.1
20150703020002 75 4 9.0 24.0 0.02 0.07 0.07 59 1023.3
20150703015502 78 334 9.0 18.0 0.00 0.05 0.05 52 1023.1
20150703015002 79 39 5.0 12.0 0.00 0.05 0.05 47 1022.2
20150703014504 80 220 1.0 2.0 0.00 0.05 0.05 46 1021.8
20150703014002 80 218 1.0 2.0 0.00 0.05 0.05 44 1021.2
20150703013502 81 209 1.0 2.0 0.00 0.05 0.05 43 1021.2
20150703013002 81 159 0.0 1.0 0.00 0.05 0.05 41 1021.2
20150703012502 81 159 0.0 1.0 0.00 0.05 0.05 41 1021.2
20150703012002 82 159 0.0 1.0 0.00 0.05 0.05 41 1021.2
20150703011503 82 159 0.0 1.0 0.00 0.05 0.05 39 1021.1
20150703011002 83 159 0.0 1.0 0.00 0.05 0.05 39 1021.0
20150703010502 83 159 0.0 1.0 0.00 0.05 0.05 38 1021.0
20150703010002 83 159 0.0 2.0 0.00 0.05 0.05 37 1020.9
20150703005503 83 159 1.0 2.0 0.00 0.05 0.05 37 1020.8
20150703005002 83 159 1.0 2.0 0.00 0.05 0.05 36 1020.9
20150703004502 84 159 1.0 2.0 0.00 0.05 0.05 37 1021.0
20150703004003 84 159 0.0 3.0 0.00 0.05 0.05 39 1020.9
20150703003502 84 205 0.0 1.0 0.00 0.05 0.05 36 1020.9
20150703003002 83 205 1.0 2.0 0.00 0.05 0.05 37 1020.9
20150703002502 84 205 1.0 6.0 0.00 0.05 0.05 36 1020.9
20150703002003 83 189 2.0 3.0 0.00 0.05 0.05 36 1020.9
20150703001502 83 218 1.0 2.0 0.00 0.05 0.05 37 1021.0
20150703001003 83 218 1.0 2.0 0.00 0.05 0.05 39 1021.0
20150703000502 83 218 1.0 3.0 0.00 0.05 0.05 39 1021.0
20150703000002 83 227 2.0 5.0 0.00 0.05 0.05 38 1021.0
20150702235503 83 226 2.0 5.0 0.00 0.05 0.05 39 1021.0
20150702235002 83 304 1.0 2.0 0.00 0.05 0.05 39 1021.2
20150702234502 83 304 1.0 2.0 0.00 0.05 0.05 38 1021.3
20150702234003 83 219 2.0 5.0 0.00 0.05 0.05 41 1021.2
20150702233506 82 206 1.0 3.0 0.00 0.05 0.05 39 1021.3
20150702233004 82 191 2.0 3.0 0.00 0.05 0.05 41 1021.2
20150702232502 82 213 1.0 3.0 0.00 0.05 0.05 40 1021.4
20150702232003 82 211 1.0 2.0 0.00 0.05 0.05 43 1021.4
20150702231503 82 212 1.0 3.0 0.00 0.05 0.05 41 1021.4
20150702231004 82 223 2.0 3.0 0.00 0.05 0.05 41 1021.7
20150702230502 81 217 1.0 3.0 0.00 0.05 0.05 41 1021.7
20150702230002 81 220 3.0 3.0 0.00 0.05 0.05 41 1021.7
20150702225502 81 218 0.0 2.0 0.00 0.05 0.05 41 1021.7
20150702225002 81 225 1.0 3.0 0.00 0.05 0.05 42 1022.1
20150702224502 81 232 1.0 2.0 0.00 0.05 0.05 43 1021.8
20150702224002 81 232 1.0 3.0 0.00 0.05 0.05 39 1022.0
20150702223504 82 232 1.0 3.0 0.00 0.05 0.05 41 1022.0
20150702223002 82 232 2.0 3.0 0.00 0.05 0.05 41 1022.3
20150702222502 81 232 2.0 3.0 0.00 0.05 0.05 42 1022.1
20150702222004 81 184 1.0 2.0 0.00 0.05 0.05 40 1022.3
20150702221505 81 184 1.0 2.0 0.00 0.05 0.05 41 1022.3
20150702221002 81 184 2.0 3.0 0.00 0.05 0.05 42 1022.2
20150702220502 81 163 2.0 3.0 0.00 0.05 0.05 42 1022.2
20150702220003 81 88 1.0 3.0 0.00 0.05 0.05 40 1022.3
20150702215502 81 345 2.0 3.0 0.00 0.05 0.05 42 1022.7
20150702215002 80 290 2.0 3.0 0.00 0.05 0.05 44 1022.5
20150702214502 80 254 1.0 3.0 0.00 0.05 0.05 43 1022.7
20150702214002 80 261 1.0 3.0 0.00 0.05 0.05 44 1022.7
20150702213503 81 304 2.0 3.0 0.00 0.05 0.05 42 1022.7
20150702213002 81 257 1.0 3.0 0.00 0.05 0.05 43 1022.8
20150702212511 81 294 2.0 3.0 0.00 0.05 0.05 42 1022.8
20150702212004 81 260 1.0 3.0 0.00 0.05 0.05 42 1022.7
20150702211502 82 240 1.0 3.0 0.00 0.05 0.05 42 1022.6
20150702211002 82 223 2.0 3.0 0.00 0.05 0.05 41 1022.6
20150702210504 82 321 2.0 5.0 0.00 0.05 0.05 40 1022.8
20150702210002 82 236 2.0 3.0 0.00 0.05 0.05 43 1022.7
20150702205502 82 222 1.0 3.0 0.00 0.05 0.05 40 1022.9
20150702205003 82 231 3.0 5.0 0.00 0.05 0.05 42 1022.8
20150702204502 82 234 1.0 3.0 0.00 0.05 0.05 42 1022.6
20150702204002 82 246 1.0 3.0 0.00 0.05 0.05 41 1022.6
20150702203502 82 148 1.0 2.0 0.00 0.05 0.05 39 1022.5
20150702203003 82 137 1.0 3.0 0.00 0.05 0.05 40 1022.8
20150702202502 83 169 0.0 3.0 0.00 0.05 0.05 39 1022.8
20150702202002 83 184 2.0 5.0 0.00 0.05 0.05 40 1023.2
20150702201502 83 309 2.0 3.0 0.00 0.05 0.05 41 1023.3
20150702201004 84 218 2.0 3.0 0.00 0.05 0.05 39 1023.3
20150702200502 84 210 3.0 5.0 0.00 0.05 0.05 40 1023.2
20150702200002 84 220 2.0 5.0 0.00 0.05 0.05 39 1023.2
20150702195503 84 210 2.0 5.0 0.00 0.05 0.05 40 1023.1
20150702195003 83 148 2.0 5.0 0.00 0.05 0.05 39 1023.1
20150702194502 83 215 1.0 3.0 0.00 0.05 0.05 41 1023.1
20150702194003 83 298 2.0 3.0 0.00 0.05 0.05 40 1023.3
20150702193503 83 17 1.0 2.0 0.00 0.05 0.05 39 1023.3
20150702193003 82 323 2.0 3.0 0.00 0.05 0.05 43 1023.3
20150702192502 82 213 2.0 5.0 0.00 0.05 0.05 45 1023.5
20150702192002 81 357 2.0 5.0 0.00 0.05 0.05 44 1023.6
20150702191502 80 188 2.0 3.0 0.00 0.05 0.05 44 1023.4
20150702191002 80 24 3.0 5.0 0.00 0.05 0.05 48 1023.4
20150702190502 79 177 2.0 3.0 0.00 0.05 0.05 50 1023.5
20150702190002 79 215 2.0 3.0 0.00 0.05 0.05 51 1023.8
20150702185503 78 225 1.0 3.0 0.00 0.05 0.05 50 1023.8
20150702185003 78 214 4.0 6.0 0.00 0.05 0.05 51 1023.8
20150702184503 77 215 3.0 6.0 0.00 0.05 0.05 51 1023.8
20150702184003 77 181 3.0 5.0 0.00 0.05 0.05 53 1023.8
20150702183502 76 214 2.0 5.0 0.00 0.05 0.05 55 1023.9
20150702183006 76 184 2.0 3.0 0.00 0.05 0.05 53 1023.7
20150702182503 76 182 1.0 2.0 0.00 0.05 0.05 54 1023.7
20150702182002 76 182 1.0 3.0 0.00 0.05 0.05 54 1023.7
20150702181502 75 163 2.0 3.0 0.00 0.05 0.05 54 1023.7
20150702181002 75 112 3.0 6.0 0.00 0.05 0.05 56 1023.5
20150702180503 75 101 2.0 6.0 0.00 0.05 0.05 54 1023.8
20150702180002 76 119 3.0 7.0 0.00 0.05 0.05 55 1023.9
20150702175502 76 102 2.0 6.0 0.00 0.05 0.05 53 1023.8
20150702175003 76 183 2.0 5.0 0.00 0.05 0.05 55 1024.0
20150702174502 75 249 1.0 3.0 0.00 0.05 0.05 57 1024.0
20150702174002 75 143 2.0 3.0 0.00 0.05 0.05 58 1024.4
20150702173502 74 178 2.0 3.0 0.00 0.05 0.05 58 1024.2
20150702173002 74 169 2.0 5.0 0.00 0.05 0.05 61 1024.1
20150702172502 73 165 3.0 5.0 0.00 0.05 0.05 61 1024.1
20150702172002 73 143 3.0 7.0 0.00 0.05 0.05 61 1024.4
20150702171502 72 212 4.0 8.0 0.00 0.05 0.05 64 1024.2
20150702171003 71 206 2.0 5.0 0.00 0.05 0.05 66 1024.4
20150702170504 70 213 4.0 7.0 0.00 0.05 0.05 65 1024.3
20150702170002 69 191 4.0 7.0 0.00 0.05 0.05 67 1024.3
20150702165502 69 157 2.0 7.0 0.00 0.05 0.05 71 1024.3
20150702165002 68 177 2.0 7.0 0.00 0.05 0.05 71 1024.4
20150702164503 67 184 5.0 10.0 0.00 0.05 0.05 69 1024.5
20150702164002 67 164 5.0 9.0 0.00 0.05 0.05 69 1024.7
20150702163502 67 208 4.0 10.0 0.00 0.05 0.05 70 1024.7
20150702163005 66 211 5.0 10.0 0.00 0.05 0.05 71 1024.7
20150702162502 66 174 5.0 10.0 0.00 0.05 0.05 74 1024.7
20150702162002 66 200 5.0 12.0 0.00 0.05 0.05 72 1024.7
20150702161502 66 212 5.0 10.0 0.00 0.05 0.05 72 1025.0
20150702161002 65 175 5.0 9.0 0.00 0.05 0.05 75 1024.9
20150702160503 65 198 5.0 9.0 0.00 0.05 0.05 74 1024.9
20150702160002 64 206 3.0 8.0 0.00 0.05 0.05 74 1025.6
20150702155502 64 181 4.0 10.0 0.00 0.05 0.05 75 1025.6
20150702155002 63 208 4.0 10.0 0.00 0.05 0.05 78 1025.7
20150702154502 62 224 4.0 9.0 0.00 0.05 0.05 82 1025.8
20150702154003 62 169 2.0 9.0 0.00 0.05 0.05 82 1025.8